Weather History for Pine Ridge, SD

Change the Weather History Date:

Sunday, October 16, 2011

  Actual Average Record
Temperature  
Mean Temperature 45 °F 48 °F  
Max Temperature 58 °F 63 °F 80 °F (2005)
Min Temperature 32 °F 32 °F 14 °F (2001)
Degree Days  
Heating Degree Days 20 17  
Month to date heating degree days 161 227  
Since 1 July heating degree days 341 449  
Cooling Degree Days 0 0  
Month to date cooling degree days 32 0  
Year to date cooling degree days 818 714  
Moisture  
Dew Point 31 °F    
Average Humidity 62    
Maximum Humidity 92    
Minimum Humidity 32    
Precipitation  
Precipitation T in 0.04 in 0.22 in (1998)
Month to date precipitation 0.85 0.66  
Year to date precipitation 17.41 16.06  
Sea Level Pressure  
Sea Level Pressure 30.09 in    
Wind  
Wind Speed 3 mph (NE)    
Max Wind Speed 13 mph    
Max Gust Speed 16 mph    
Visibility 9 miles    
Events      
T = Trace of Precipitation, MM = Missing Value Source: NWS Daily Summary

Daily Weather History Graph

Daily Weather History Graph

Search for Another Location

Airport:

Trip Planner

Search our weather history database for the weather conditions in past years. The results will help you decide how hot, cold, wet, or windy it might be!

Date:

Astronomy

Oct. 16, 2011 Rise Set
Actual Time 7:04 AM MDT 6:06 PM MDT
Civil Twilight 6:35 AM MDT 6:34 PM MDT
Nautical Twilight 6:02 AM MDT 7:07 PM MDT
Astronomical Twilight 5:30 AM MDT 7:40 PM MDT
Moon 8:47 PM MDT (10/16) 11:30 AM MDT (10/16)
Length of Visible Light 11h 58m
Length of Day
11h 01m
Waning Gibbous, 82% of the Moon is Illuminated
Oct 16
Waning Gibbous
Oct 19
Last Quarter
Oct 26
New
Nov 2
First Quarter
Nov 10
Full

Hourly Weather History & Observations

Time (MDT) Temp. Windchill Dew Point Humidity Pressure Visibility Wind Dir Wind Speed Gust Speed Precip Events Conditions
12:52 AM 39.9 °F - 33.1 °F 77% 30.05 in 10.0 mi Calm Calm - N/A   Mostly Cloudy
1:45 AM 44.6 °F 42.2 °F 37.4 °F 76% 30.09 in 10.0 mi North 4.6 mph - N/A   Scattered Clouds
1:52 AM 43.0 °F 40.3 °F 37.0 °F 80% 30.06 in 10.0 mi North 4.6 mph - N/A   Partly Cloudy
3:52 AM 39.0 °F - 35.1 °F 86% 30.08 in 10.0 mi Calm Calm - N/A   Partly Cloudy
5:52 AM 33.1 °F - 30.9 °F 92% 30.13 in 10.0 mi Calm Calm - N/A   Partly Cloudy
6:52 AM 32.0 °F - 30.0 °F 92% 30.15 in 10.0 mi Calm Calm - N/A   Overcast
7:52 AM 35.1 °F - 33.1 °F 92% 30.18 in 10.0 mi Calm Calm - N/A   Clear
8:52 AM 43.0 °F - 37.0 °F 80% 30.20 in 10.0 mi Calm Calm - N/A   Overcast
9:52 AM 48.0 °F - 30.9 °F 52% 30.19 in 10.0 mi North 11.5 mph - N/A   Overcast
10:52 AM 51.1 °F - 28.0 °F 41% 30.18 in 10.0 mi North 8.1 mph - N/A   Partly Cloudy
11:52 AM 53.1 °F - 28.0 °F 38% 30.17 in 10.0 mi NNE 8.1 mph - N/A   Clear
12:52 PM 53.1 °F - 26.1 °F 35% 30.14 in 10.0 mi Calm Calm - N/A   Clear
1:52 PM 55.0 °F - 27.0 °F 34% 30.10 in 10.0 mi Calm Calm - N/A   Clear
3:52 PM 55.9 °F - 27.0 °F 33% 30.06 in 10.0 mi Calm Calm - N/A   Clear
4:52 PM 55.9 °F - 28.0 °F 34% 30.06 in 10.0 mi SE 3.5 mph - N/A   Clear
5:52 PM 52.0 °F - 28.9 °F 41% 30.05 in 10.0 mi East 4.6 mph - N/A   Clear
6:52 PM 45.0 °F 41.8 °F 30.9 °F 58% 30.06 in 10.0 mi East 5.8 mph - N/A   Clear
7:52 PM 42.1 °F 39.2 °F 30.9 °F 65% 30.06 in 10.0 mi ENE 4.6 mph - N/A   Clear
8:48 PM 42.8 °F 38.6 °F 30.2 °F 61% 30.02 in 2.0 mi NE 6.9 mph - N/A   Haze
8:52 PM 42.1 °F 38.4 °F 30.0 °F 62% 30.04 in 4.0 mi NE 5.8 mph - N/A   Haze
9:52 PM 46.9 °F - 30.0 °F 52% 29.99 in 10.0 mi Variable 5.8 mph - N/A   Mostly Cloudy
10:52 PM 50.0 °F - 30.0 °F 46% 29.98 in 10.0 mi Variable 3.5 mph - N/A   Overcast
11:52 PM 48.9 °F - 35.1 °F 59% 29.95 in 10.0 mi Calm Calm - 0.00 in   Overcast